Wind_Speed
4 4 3 2 2 1 0 1 1 2 3 4 5 5 5 6 6 6 6 7 7 8 8 7 8 8 9 9 9 9 9 9 9 9 8 9 9 10 9 10 10 10 11
4 3 3 3 2 2 2 2 2 2 2 3 3 4 4 5 5 6 5 5 6 7 7 7 7 8 8 8 9 9 9 9 9 9 9 9 9 10 10 10 10 10 11
4 4 3 3 3 3 4 3 3 3 3 3 3 3 4 4 5 5 5 5 6 6 6 6 6 7 8 8 8 9 9 9 9 9 9 9 9 9 10 10 11 11 11
3 4 4 4 4 4 4 4 5 4 4 3 3 3 3 4 4 4 4 4 5 5 5 6 6 6 7 7 7 7 8 9 9 9 9 9 9 10 10 10 11 11 11
3 4 4 4 4 4 5 5 6 5 5 4 4 4 4 4 4 4 4 4 4 4 4 5 5 6 6 6 6 6 7 8 8 8 8 8 9 9 10 10 11 11 11
4 4 4 4 5 5 6 6 6 5 5 5 5 4 4 3 3 3 3 3 4 3 3 4 5 5 6 6 5 5 6 6 7 8 8 8 8 8 8 9 10 11 11
4 5 6 5 5 5 6 6 6 5 5 5 5 4 4 3 3 2 2 2 3 2 2 3 4 4 5 5 6 5 5 5 6 7 7 8 8 8 8 9 9 10 11
5 6 6 6 5 6 6 6 6 5 5 5 5 5 4 3 3 2 2 2 2 2 2 2 2 3 3 4 5 5 5 5 6 6 7 8 8 8 9 9 9 10 11
5 5 6 6 5 5 6 6 6 5 5 5 5 5 4 4 4 2 2 1 2 2 2 1 2 2 3 3 4 5 5 4 5 6 7 8 9 9 9 9 10 10 11
5 5 6 6 6 6 6 6 6 6 6 5 5 5 5 4 4 3 3 3 2 2 1 1 1 2 2 3 3 4 4 5 4 6 6 7 8 9 9 9 10 10 10
5 5 5 5 6 6 6 5 5 5 5 5 5 4 4 4 3 2 3 3 2 1 0 1 1 2 2 3 3 4 4 5 5 5 6 7 7 8 8 9 9 10 10
5 5 5 5 5 6 6 5 5 5 4 4 3 3 2 2 2 2 3 3 1 1 1 2 2 3 3 3 4 5 5 6 6 6 6 6 7 8 8 9 10 10 11
4 4 4 4 5 5 5 5 5 4 4 3 2 2 2 2 1 2 3 3 2 2 3 3 3 4 4 5 4 5 5 6 6 7 7 7 8 8 9 10 11 11 12
4 3 3 3 3 3 4 4 3 3 3 2 2 2 2 3 2 2 2 3 3 2 3 3 3 3 4 4 5 5 5 6 6 6 7 8 9 10 10 11 11 12 13
4 3 2 2 2 2 2 2 2 2 1 1 1 1 2 2 2 2 2 3 3 3 3 3 3 3 4 4 5 5 6 6 6 7 8 10 10 10 11 12 12 13 14
5 4 3 2 2 2 1 1 1 1 1 0 0 1 2 2 2 3 3 3 3 3 3 4 4 4 5 5 5 6 6 7 8 9 10 11 11 12 13 14 14 14 14
6 5 4 3 3 2 2 2 2 2 2 1 1 1 2 3 3 4 4 3 4 4 3 3 5 5 6 6 7 7 8 8 9 10 11 11 12 13 14 14 15 15 16
7 6 5 5 4 3 3 3 3 3 3 3 3 3 3 3 4 4 4 5 5 4 5 4 5 6 6 7 8 9 10 10 11 11 12 13 13 14 14 15 16 17 17
8 7 7 7 6 5 5 4 4 4 4 4 4 4 5 5 5 5 6 6 6 6 7 8 7 8 8 9 9 10 11 12 13 13 13 14 14 15 16 17 18 18 19
9 9 8 8 7 6 6 6 5 5 6 6 6 6 6 7 7 7 7 8 8 8 9 9 10 10 10 11 11 12 13 13 14 15 16 17 17 18 19 20 20 21 22
11 10 9 9 9 8 8 7 7 7 7 7 7 7 8 8 9 9 9 9 9 9 10 10 11 11 11 11 12 13 14 15 16 17 18 19 19 20 21 22 23 24 25
13 12 11 11 10 10 10 9 9 9 9 8 8 9 9 9 10 10 10 10 11 11 11 12 12 13 13 14 15 16 16 17 18 19 20 21 22 22 23 24 25 26 27
14 13 13 13 12 11 11 11 11 11 10 10 10 10 11 11 11 11 12 12 13 13 13 13 14 15 16 16 17 18 18 19 20 21 22 23 24 25 26 27 27 28 28
15 15 15 14 14 13 13 13 13 13 12 12 12 12 13 13 14 14 14 15 15 15 15 16 17 17 18 18 19 20 20 21 22 23 24 25 26 27 28 29 29 29 29
16 15 15 15 15 15 15 15 15 14 14 15 15 15 16 16 16 16 16 17 17 17 17 18 19 19 20 21 21 22 22 23 24 25 26 27 28 28 29 30 31 31 31
17 17 17 17 17 17 17 17 17 17 17 17 17 17 17 17 17 17 17 17 18 19 19 20 20 21 22 22 23 24 24 25 26 27 28 29 30 31 30 30 32 33 34
Wind_Direction
1 2 4 12 26 46 58 168 196 206 212 208 202 203 203 209 210 211 218 225 225 224 225 225 228 229 234 238 240 242 244 246 246 248 246 247 248 249 252 258 262 267 268
14 14 22 35 41 58 82 97 127 165 172 171 180 192 199 206 210 210 213 219 220 221 226 228 229 232 235 241 244 244 243 245 245 245 247 249 250 252 255 257 263 267 270
23 37 49 56 63 79 94 102 128 134 141 148 158 175 192 204 207 207 211 217 216 218 223 224 227 234 237 240 244 245 244 244 246 246 247 249 251 254 257 259 261 266 269
38 41 52 66 71 77 93 99 114 123 130 136 147 161 172 174 182 188 201 210 215 216 221 226 224 234 238 241 246 246 246 245 246 248 250 251 254 256 259 263 265 267 270
47 49 56 72 82 86 96 100 104 106 113 121 130 136 139 148 161 168 173 187 196 210 215 221 224 232 238 243 252 249 248 248 246 248 249 252 255 261 262 266 266 269 273
61 55 63 81 87 94 102 107 108 103 102 109 116 116 120 135 153 157 167 180 191 204 208 216 224 231 237 242 250 250 252 255 249 250 249 252 256 263 267 270 271 270 273
70 60 65 80 90 96 102 106 106 105 101 103 110 109 110 123 149 157 166 177 181 187 194 203 211 223 234 245 250 257 260 260 258 258 252 252 256 265 271 273 276 274 273
73 68 71 79 92 98 101 104 105 101 94 92 99 106 103 110 120 124 142 158 163 176 189 195 209 221 233 248 252 257 258 266 263 263 258 258 262 269 273 274 278 279 277
83 79 80 79 88 97 101 101 103 102 97 96 95 96 92 93 100 106 103 115 158 174 201 213 229 228 238 255 259 261 263 283 270 272 268 269 271 272 274 276 278 281 283
101 91 85 81 85 92 94 100 106 106 102 100 99 97 91 87 90 79 72 84 111 140 183 223 248 245 260 281 271 266 274 282 281 280 277 274 274 273 275 280 285 286 288
109 98 91 87 87 90 94 100 108 111 109 104 100 98 82 87 75 63 58 69 84 102 243 299 304 312 296 291 284 282 281 280 281 281 281 280 279 278 281 285 290 291 290
115 105 99 94 91 92 95 101 112 114 117 118 107 91 74 85 53 32 25 34 37 7 332 320 309 301 299 296 295 294 295 294 292 292 289 289 288 287 288 291 293 294 292
132 120 107 98 94 93 98 105 108 109 112 116 99 70 57 34 13 7 0 358 0 358 342 328 315 308 304 302 305 307 301 298 298 297 297 298 298 294 295 297 296 294 291
147 137 123 112 106 98 98 107 111 108 108 96 72 62 45 16 7 351 343 347 356 351 351 342 332 325 321 316 314 312 308 305 304 301 303 304 302 299 297 299 298 295 292
163 152 142 138 132 125 117 117 123 120 119 80 47 59 25 16 2 358 351 343 353 353 345 336 337 335 329 328 327 319 315 310 307 303 303 304 304 302 301 301 300 300 297
192 182 183 177 170 177 190 195 152 147 160 129 37 1 7 2 349 347 339 338 337 334 321 326 336 332 325 322 322 319 316 314 310 307 305 304 303 300 300 300 299 297 296
207 205 209 209 208 212 212 209 213 220 215 229 276 313 329 336 335 337 333 325 324 322 326 328 328 325 324 323 320 321 319 314 310 309 306 303 304 304 303 302 301 300 299
217 219 222 222 225 236 235 234 236 243 251 262 275 295 308 316 319 320 323 324 321 317 318 317 314 314 314 316 319 318 314 313 312 310 307 307 306 306 307 306 304 302 300
224 229 233 234 239 245 242 242 244 248 257 268 275 283 292 301 307 310 310 312 312 311 310 311 311 312 311 310 312 314 315 314 312 312 311 310 310 309 308 306 303 299 297
230 235 238 240 243 245 246 248 252 255 261 269 274 278 283 291 296 299 300 301 302 303 304 306 308 308 309 311 312 313 313 313 314 314 314 315 314 311 308 305 302 300 298
235 237 241 247 248 249 249 252 256 262 267 272 276 279 283 288 293 297 299 300 301 302 303 305 307 308 309 310 312 313 313 314 314 313 313 313 312 310 310 308 307 305 303
240 242 245 248 248 250 252 256 260 264 268 271 276 280 283 286 290 293 296 297 298 299 301 302 304 306 306 307 308 309 309 308 308 309 309 310 310 308 307 306 306 306 304
245 249 251 247 250 254 256 258 262 261 264 269 274 278 281 285 288 291 293 295 295 295 295 297 299 301 302 302 304 306 307 308 308 308 308 309 309 310 309 307 307 306 304
245 250 251 249 250 254 257 257 260 261 265 271 275 278 282 286 289 292 292 293 293 294 295 296 298 300 301 302 303 305 307 308 308 309 310 310 310 310 310 308 308 307 306
246 248 249 252 253 254 256 257 258 261 266 271 274 278 282 284 288 289 291 293 294 294 297 299 301 302 303 303 303 305 306 307 308 308 309 310 310 310 309 308 308 308 307
247 249 252 254 255 256 258 259 261 265 269 272 276 279 281 283 285 286 289 292 294 295 297 299 300 301 302 303 304 305 305 306 307 308 308 308 309 309 308 307 307 307 307
Height
5862 5861 5860 5859 5858 5858 5857 5857 5857 5857 5858 5859 5860 5861 5862 5864 5865 5866 5867 5868 5869 5870 5871 5872 5873 5875 5876 5877 5878 5879 5879 5880 5881 5881 5880 5881 5882 5883 5883 5884 5884 5884 5884
5862 5861 5860 5859 5858 5858 5857 5857 5857 5857 5858 5859 5860 5861 5862 5863 5864 5865 5866 5867 5868 5869 5870 5871 5872 5873 5874 5875 5876 5877 5878 5878 5879 5879 5880 5880 5881 5881 5882 5882 5882 5882 5881
5862 5861 5860 5859 5858 5858 5857 5857 5857 5857 5858 5859 5860 5861 5862 5863 5864 5865 5865 5866 5867 5868 5869 5870 5871 5872 5873 5874 5874 5875 5876 5876 5877 5878 5878 5879 5879 5880 5880 5880 5880 5880 5879
5862 5861 5860 5859 5858 5858 5858 5858 5858 5858 5858 5859 5860 5861 5861 5862 5863 5864 5865 5866 5867 5868 5868 5869 5870 5871 5871 5872 5873 5873 5874 5875 5875 5876 5876 5877 5877 5878 5878 5878 5878 5877 5877
5862 5861 5860 5859 5859 5858 5858 5858 5858 5859 5859 5860 5860 5861 5861 5862 5863 5864 5864 5865 5866 5867 5867 5868 5869 5870 5870 5871 5872 5872 5872 5873 5873 5874 5874 5875 5875 5875 5876 5876 5875 5875 5874
5862 5862 5861 5860 5859 5859 5859 5859 5860 5860 5860 5861 5861 5861 5862 5862 5863 5864 5864 5865 5866 5866 5867 5867 5868 5869 5869 5870 5870 5871 5871 5871 5872 5872 5872 5873 5873 5873 5873 5873 5873 5873 5872
5863 5862 5861 5861 5860 5860 5860 5861 5861 5861 5861 5862 5862 5862 5863 5863 5863 5864 5865 5865 5866 5866 5866 5867 5868 5868 5869 5869 5869 5870 5870 5870 5870 5870 5871 5871 5871 5871 5871 5871 5870 5870 5869
5864 5863 5863 5862 5862 5861 5861 5862 5862 5862 5862 5863 5863 5863 5864 5864 5864 5864 5865 5865 5865 5866 5866 5867 5867 5868 5868 5868 5869 5869 5869 5869 5869 5869 5869 5869 5869 5869 5869 5868 5868 5867 5866
5865 5864 5864 5864 5863 5863 5863 5863 5863 5863 5864 5864 5864 5865 5865 5865 5865 5865 5865 5865 5865 5866 5866 5867 5867 5867 5868 5868 5868 5868 5868 5867 5867 5867 5867 5867 5867 5867 5867 5866 5866 5865 5864
5866 5866 5865 5865 5864 5864 5864 5864 5864 5865 5865 5865 5865 5865 5866 5866 5866 5865 5865 5865 5865 5866 5866 5867 5867 5867 5867 5867 5867 5867 5867 5867 5866 5865 5865 5865 5865 5865 5865 5864 5863 5863 5862
5867 5867 5866 5866 5866 5866 5865 5865 5865 5866 5866 5866 5866 5866 5866 5866 5866 5866 5866 5866 5866 5866 5866 5866 5867 5867 5867 5867 5866 5866 5866 5866 5865 5864 5864 5863 5863 5863 5863 5862 5862 5861 5860
5867 5867 5867 5867 5867 5867 5867 5866 5866 5867 5867 5867 5867 5867 5867 5867 5867 5867 5866 5866 5866 5867 5866 5866 5866 5866 5866 5866 5865 5865 5865 5864 5863 5863 5862 5862 5862 5861 5861 5860 5859 5859 5857
5868 5868 5868 5868 5868 5868 5868 5868 5868 5868 5868 5868 5868 5868 5868 5868 5867 5867 5867 5867 5867 5867 5866 5866 5866 5865 5865 5865 5864 5864 5863 5863 5862 5862 5861 5861 5860 5859 5859 5858 5857 5856 5855
5869 5869 5869 5869 5869 5869 5869 5869 5869 5869 5869 5869 5869 5869 5869 5868 5868 5868 5867 5867 5867 5867 5866 5866 5866 5865 5864 5864 5863 5863 5862 5861 5861 5861 5860 5859 5859 5858 5857 5856 5855 5854 5852
5869 5869 5869 5869 5869 5869 5870 5869 5869 5869 5869 5869 5869 5869 5869 5869 5868 5868 5868 5867 5868 5867 5866 5866 5865 5865 5864 5864 5863 5862 5861 5860 5860 5859 5858 5858 5857 5855 5854 5853 5852 5851 5850
5869 5869 5869 5870 5870 5870 5870 5870 5870 5870 5870 5870 5870 5869 5869 5869 5868 5868 5867 5867 5867 5867 5866 5865 5864 5864 5864 5863 5862 5861 5860 5859 5858 5857 5856 5855 5854 5853 5851 5850 5849 5847 5846
5868 5869 5869 5869 5870 5870 5870 5870 5870 5870 5870 5870 5870 5870 5869 5869 5868 5868 5867 5867 5867 5866 5865 5865 5864 5863 5862 5862 5861 5860 5859 5858 5856 5855 5854 5852 5851 5850 5848 5847 5845 5844 5843
5868 5868 5869 5869 5869 5869 5870 5870 5870 5870 5870 5870 5870 5870 5869 5869 5868 5868 5867 5867 5866 5866 5865 5864 5863 5862 5861 5860 5859 5858 5857 5856 5854 5852 5851 5849 5848 5846 5845 5843 5842 5840 5838
5867 5867 5868 5868 5868 5868 5869 5869 5869 5869 5870 5869 5869 5869 5869 5868 5868 5867 5866 5866 5865 5865 5864 5863 5862 5861 5860 5859 5858 5856 5855 5853 5852 5850 5848 5846 5844 5842 5841 5839 5837 5835 5833
5865 5866 5866 5867 5867 5867 5867 5868 5868 5868 5869 5869 5868 5868 5868 5867 5867 5866 5865 5865 5864 5863 5862 5861 5861 5860 5858 5857 5856 5854 5852 5851 5849 5847 5845 5842 5840 5838 5836 5834 5831 5829 5827
5863 5864 5864 5865 5866 5866 5866 5866 5867 5867 5867 5867 5867 5867 5866 5866 5865 5865 5864 5863 5862 5861 5860 5859 5858 5857 5856 5855 5853 5852 5850 5848 5846 5844 5841 5839 5836 5834 5831 5828 5825 5822 5820
5861 5862 5862 5863 5863 5864 5864 5865 5865 5865 5865 5865 5865 5865 5864 5864 5863 5863 5862 5861 5860 5859 5858 5857 5856 5855 5854 5852 5851 5849 5847 5845 5843 5841 5837 5834 5831 5828 5825 5822 5819 5816 5812
5858 5859 5860 5860 5861 5861 5862 5862 5863 5863 5863 5863 5863 5863 5862 5862 5861 5860 5860 5859 5858 5857 5856 5855 5853 5852 5850 5849 5847 5845 5843 5840 5838 5835 5833 5829 5826 5822 5819 5815 5812 5808 5805
5855 5856 5857 5858 5858 5859 5859 5859 5860 5860 5860 5860 5860 5860 5860 5859 5859 5858 5857 5856 5855 5854 5852 5851 5850 5848 5846 5844 5842 5840 5838 5835 5832 5829 5827 5824 5820 5816 5812 5808 5804 5801 5798
5851 5852 5853 5854 5855 5855 5856 5856 5857 5857 5857 5857 5857 5857 5856 5856 5855 5855 5854 5853 5851 5850 5848 5847 5845 5843 5841 5839 5837 5835 5833 5830 5827 5824 5821 5817 5814 5810 5806 5802 5797 5793 5790
5847 5848 5850 5850 5851 5852 5852 5853 5853 5853 5854 5854 5853 5853 5853 5852 5851 5850 5850 5848 5847 5846 5844 5842 5841 5839 5836 5834 5832 5829 5827 5824 5821 5818 5814 5811 5807 5803 5799 5795 5791 5786 5782